Retour au catalogue

FLOCK 4G 7

ActifScienceSSO
NORAD 62624·PAYLOAD·🇺🇸 United States

Lancé Jan 14, 2025 depuis Vandenberg Space Force Base

Loading…

Prochains Passages (prochaines 24 heures)

TLE

FraisSource: CelesTrak SupGP

Époque: Sep 14, 2026, 14:44 UTC

1 62624C 25009R   26257.61417824  .00008855  00000+0  29786-3 0  2578
2 62624  97.3890 338.4970 0002635  35.8129 100.8298 15.30850766    16

Suivez FLOCK 4G 7 en temps réel avec AllMySat

Download on the App Store